Flight Track Log - Related Links

Times and Time Zones

All times are in EDT time to prevent confusion due to time zone crossing. See the ELJ984 flight status page for this flight to view local times or setup timezone preferences in your user account.

Time Position Orientation Groundspeed Altitude Reporting Facility
EDT Latitude Longitude Course Direction KTS MPH feet Rate Location/Type
Mon 12:16:36 PM 36.6000 -121.8833 125° Southeast 211 243 1,700  Level Northern Cal TRACON
Mon 12:17:36 PM 36.6667 -121.9000 349° North 219 252 4,000 2,826 Climbing Northern Cal TRACON
Mon 12:18:37 PM 36.6500 -121.8167 104° East 259 298 7,400 2,615 Climbing Northern Cal TRACON
Mon 12:20:12 PM 36.5856 -121.6936 123° Southeast 287 330 10,800 2,615 Climbing Oakland Center
Mon 12:21:13 PM 36.5386 -121.6017 122° Southeast 312 359 14,200 3,344 Climbing Oakland Center
Mon 12:22:00 PM 36.2604 -121.1764 125° Southeast  Level FlightAware Approximate
Mon 12:22:14 PM 36.4844 -121.4975 123° Southeast 352 405 17,600  Level Oakland Center
Mon 12:23:16 PM 36.4269 -121.3831 122° Southeast 385 443 19,000 1,902 Climbing Oakland Center
Mon 12:24:17 PM 36.3656 -121.2617 122° Southeast 410 472 21,500 2,951 Climbing Oakland Center
Mon 12:25:18 PM 36.3031 -121.1389 122° Southeast 420 483 25,000 2,683 Climbing Oakland Center
Mon 12:26:20 PM 36.2386 -121.0153 123° Southeast 424 488 27,000 976 Climbing Oakland Center
Mon 12:27:21 PM 36.1719 -120.8878 123° Southeast 438 504 27,000 1,574 Level Oakland Center
Mon 12:28:22 PM 36.0897 -120.7322 123° Southeast 449 517 30,200 1,951 Climbing Oakland Center
Mon 12:29:24 PM 36.0206 -120.5994 123° Southeast 456 525 31,000 390 Climbing Oakland Center
Mon 12:30:25 PM 35.9514 -120.4689 123° Southeast 452 520 31,000  Level Oakland Center
Mon 12:31:27 PM 35.8825 -120.3400 123° Southeast 448 516 31,000  Level Oakland Center
Mon 12:32:28 PM 35.8128 -120.2086 123° Southeast 452 520 31,000  Level Oakland Center
Mon 12:33:29 PM 35.7425 -120.0786 124° Southeast 453 521 31,000  Level Oakland Center
Mon 12:34:31 PM 35.6719 -119.9472 123° Southeast 454 522 31,000  Level Oakland Center
Mon 12:35:32 PM 35.6014 -119.8167 124° Southeast 456 525 31,000  Level Oakland Center
Mon 12:36:34 PM 35.5311 -119.6853 123° Southeast 456 525 31,000  Level Oakland Center
Mon 12:37:35 PM 35.4586 -119.5556 124° Southeast 458 527 31,000  Level Oakland Center
Mon 12:38:36 PM 35.3886 -119.4250 123° Southeast 458 527 31,000  Level Oakland Center
Mon 12:39:41 PM 35.3061 -119.2694 123° Southeast 458 527 31,000  Level Los Angeles Center
Mon 12:40:43 PM 35.2344 -119.1397 124° Southeast 458 527 31,000  Level Los Angeles Center
Mon 12:41:45 PM 35.1628 -119.0094 124° Southeast 459 528 31,000  Level Los Angeles Center
Mon 12:42:47 PM 35.0900 -118.8806 125° Southeast 461 531 31,000  Level Los Angeles Center
Mon 12:43:49 PM 35.0189 -118.7517 124° Southeast 460 529 31,000 -48 Level Los Angeles Center
Mon 12:44:52 PM 34.9328 -118.5981 124° Southeast 458 527 30,900 -816 Descending Los Angeles Center
Mon 12:45:54 PM 34.8608 -118.4706 124° Southeast 471 542 29,300 -1,306 Descending Los Angeles Center
Mon 12:46:56 PM 34.7867 -118.3392 124° Southeast 474 545 28,200 -1,742 Descending Los Angeles Center
Mon 12:47:58 PM 34.7139 -118.2094 124° Southeast 472 543 25,700 -2,323 Descending Los Angeles Center
Mon 12:49:00 PM 34.6442 -118.0892 125° Southeast 445 512 23,400 -1,548 Descending Los Angeles Center
Mon 12:50:02 PM 34.5806 -117.9525 119° Southeast 391 450 22,500 -968 Descending Los Angeles Center
Mon 12:51:04 PM 34.5272 -117.8369 119° Southeast 394 453 21,400 -1,065 Descending Los Angeles Center
Mon 12:52:06 PM 34.4739 -117.7197 119° Southeast 401 461 20,300 -960 Descending Los Angeles Center
Mon 12:53:09 PM 34.4192 -117.6025 119° Southeast 401 461 19,400 -1,008 Descending Los Angeles Center
Mon 12:54:11 PM 34.3594 -117.4714 119° Southeast 391 450 18,200 -1,016 Descending Los Angeles Center
Mon 12:55:13 PM 34.3064 -117.3564 119° Southeast 392 451 17,300 -532 Descending Los Angeles Center
Mon 12:56:15 PM 34.2547 -117.2469 120° Southeast 377 434 17,100 -919 Descending Los Angeles Center
Mon 12:57:17 PM 34.2044 -117.1386 119° Southeast 357 411 15,400 -1,452 Descending Los Angeles Center
Mon 12:58:19 PM 34.1569 -117.0386 120° Southeast 347 399 14,100 -629 Descending Los Angeles Center
Mon 12:59:21 PM 34.1119 -116.9400 119° Southeast 329 379 14,100 75 Level Los Angeles Center
Mon 12:59:39 PM 34.0833 -116.9000 131° Southeast 333 383 14,200  Climbing Southern California TRACON
Mon 01:00:23 PM 34.0650 -116.8406 110° East 337 388 14,100 -340 Descending Los Angeles Center
Mon 01:01:25 PM 34.0111 -116.7261 120° Southeast 328 377 13,600 -480 Descending Los Angeles Center
Mon 01:02:28 PM 33.9653 -116.6294 120° Southeast 330 380 13,100 -624 Descending Los Angeles Center
Mon 01:03:30 PM 33.9214 -116.5369 120° Southeast 319 367 12,300 -1,597 Descending Los Angeles Center
Mon 01:04:32 PM 33.8814 -116.4497 119° Southeast 303 349 9,800 -2,262 Descending Los Angeles Center
Mon 01:06:33 PM 33.8167 -116.3000 117° Southeast 225 259 5,400 -1,797 Descending Southern California TRACON
Mon 01:07:39 PM 33.7667 -116.3167 195° South 204 235 4,200 -1,190 Descending Southern California TRACON
Mon 01:08:39 PM 33.7500 -116.3833 253° West 188 216 2,900 -835 Descending Southern California TRACON
Mon 01:09:34 PM 33.7333 -116.4167 239° Southwest 162 186 2,600 -626 Descending Southern California TRACON
Mon 01:10:34 PM 33.7667 -116.4500 320° Northwest 156 180 1,700 -850 Descending Southern California TRACON
Mon 01:11:34 PM 33.8000 -116.4833 320° Northwest 149 171 900 -800 Descending Southern California TRACON
Mon 01:13:00 PM 33.8167 -116.5000 270° West  Level FlightAware Approximate
Mon 01:20:00 PM 33.8297 -116.5067 270° West  Level Estimated

Login

Don't have an account? Register now (free) for customized features, flight alerts, and more!